Погода в Балнеариу-Камбориу

Бразилия     26°59′30″S   48°37′52″W
темп.,
°C
ветер,
м/с
пор.,
м/с
влажн.,
%
обл.,
%
осадки,
мм/ч
давл.,
гПа
погр.,
м
27 февраля, сб
сб2700:00+20ююз289624 0.4 1017339
03:00+20ююз279830 1.4 1016299
06:00+20ююз1610063 1.3 1015228
09:00+22ююв289773 3.8 1017674
12:00+24юв499553 7.8 1018977
15:00+23юв499570 14.4 1017990
18:00+21ююв31198100 4.4 1017786
21:00+21ююв21198100 7.8 1018619
28 февраля, вс
вс2800:00+21ю21099100 3.6 1017509
03:00+20ююз129979 5.5 1015100
06:00+20ююз179992 0.6 1015362
09:00+24ю278068 0.6 1015784
12:00+29ююв255546 0.1 10151451
15:00+26юв148653 3.1 1012834
18:00+23юв169614 5.1 1012321
21:00+21юв119810 6.4 101424
1 марта, пн
пн100:00+20ююв119961 0.4 101428
03:00+20юз1210058 0.9 101264
06:00+20зюз129933 0.0 101240
09:00+25зюз128427 0.0 1013361
12:00+32ссв12493 0.0 10121315
15:00+29всв34602 0.0 1010601
18:00+26в138135 0.3 1010491
21:00+23ююз119468 0.5 101223
2 марта, вт
вт200:00+22зюз1195100 0.0 101323
03:00+21юз1198100 0.0 101133
06:00+21зюз119940 0.0 101224
09:00+27з117026 0.0 1013580
12:00+33св22482 0.0 10131441
15:00+28всв257841 3.8 1011620
18:00+24св0197100 5.0 101227
21:00+22ссз1199100 6.1 101496
3 марта, ср
ср300:00+21ссз1199100 0.1 101543
03:00+20юз1199100 0.1 101423
06:00+20зюз1199100 0.0 101423
09:00+25зюз128285 0.0 1016362
12:00+31в225127 0.0 10151264
15:00+28в356321 0.0 1013829
18:00+25в248030 0.0 1013667
21:00+22юв119464 0.1 101523